Simultaneous Nadir Overpasses (SNOs) Predictions

Prediction of SNOs between LANDSAT-8 and NOAA-19 Satellite Orbit:

Table of predicted SNOs for the next 14.0 days since TLE Epoch: 9/14/2016
Index Date (LANDSAT-8) Time (LANDSAT-8) Lat,Lon (LANDSAT-8) SZA (LANDSAT-8 ) Date (NOAA-19) Time (NOAA-19) Lat,Lon (NOAA-19) SZA (NOAA-19 ) Distance(km) Time Diff (sec)
1 09/14/2016 23:38:07 -75.56, 12.52 107.31 09/14/2016 23:37:00 -75.63, 9.72 107.34 77.88 67
2 09/15/2016 00:27:43 75.04, 178.74 72.14 09/15/2016 00:27:44 75.04, 178.85 72.14 3.37 1
3 09/17/2016 05:11:59 75.13, 107.89 73.08 09/17/2016 05:10:46 75.17, 107.77 73.11 5.82 73
4 09/17/2016 06:01:28 -75.05, -84.67 106.99 09/17/2016 06:01:49 -75.08, -84.71 106.96 2.68 21
5 09/19/2016 10:45:44 -75.14,-155.51 106.04 09/19/2016 10:44:49 -75.12,-155.55 106.06 1.99 55
6 09/19/2016 11:35:11 75.06, 11.93 73.90 09/19/2016 11:35:45 75.07, 11.88 73.91 1.59 34
7 09/21/2016 16:19:27 75.14, -58.94 74.84 09/21/2016 16:18:45 75.11, -58.94 74.81 3.43 42
8 09/21/2016 17:08:55 -75.07, 108.52 105.22 09/21/2016 17:09:47 -75.04, 108.50 105.24 3.43 52
9 09/23/2016 21:53:12 -75.10, 37.52 104.33 09/23/2016 21:52:47 -75.10, 37.62 104.33 2.98 25
10 09/23/2016 22:42:38 75.07,-154.92 75.65 09/23/2016 22:43:44 75.06,-155.00 75.66 2.15 66
11 09/26/2016 03:26:54 75.14, 134.19 76.59 09/26/2016 03:26:44 75.11, 134.17 76.56 3.41 10
